CZ-3B R/B, 66991

Orbit data source: Space-Track

CZ-3B R/B, 66991 is space debris in HEO originally from a launch on Tue, 09 Dec 2025 UTC launched from the Xichang Space Center, China (XSC). Debris objects in space refer to the collection of defunct objects orbiting the Earth. Examples of debris include non-operational satellites, rocket bodies, and fragments generated from explosions, collisions, or faulty payload assembly.

Loading next visibility...
Identifier
66991, 2025-290B
Orbit
HEO
Country
Flag of CNCN / PRC
Related business
Manufacturer
CALT
Mission
Spacecraft
Bus & Motor
CZ-3A STAGE 3, Unknown motor
Mass
~2,800 kg wet, ~2,800 kg dry
Launch date (UTC)
2025-12-09 (7 months ago)
Launch vehicle
Unknown
Launch site
Xichang Space Center, China (XSC)
Object type
Payload
Rocket body
Debris
Shape & HBR
Cyl + 1 Nozzle, 8.0 m
Radar Cross Section
32.704 m², Large (>1 m²)

Expand to show TLE details & history
Last TLE update: 12 hours ago

TLE from 12 hours ago
0 CZ-3B R/B
1 66991U 25290B   26195.23317161  .00015707  00000-0  93943-3 0  9997
2 66991  28.0807 199.5031 6781020 347.5341   1.7215  2.96997447  6006
Epoch: 2026-07-14T05:35Z
TLE epoch observation values (Epoch: 2026-07-14T05:35:46.027Z)
Latitude
-0.00026°
Longitude
-176.52097°
Altitude
279.317 km
Speed
10.012 km/s
True Right ascension
13h 18m 06s
True Declination
0° 00' 01"
Sunlit
Object was in daylight at epoch
Visualization orbit readout
Latitude
Unknown
Longitude
Unknown
Altitude
Unknown
Speed
Unknown
Apparent Right ascension
Unknown
Apparent Declination
Unknown
Sunlit
N/A
Visualization observer readout
Local Sidereal Time
06:28:12
Azimuth
Unknown
Elevation
Unknown
Doppler factor
Unknown
Orbital elements
Apogee altitude
27,935.147 km
Perigee altitude
203.929 km
Semi-major axis
20,447.675 km
Eccentricity
0.6781
Inclination
28.0807°
RAAN
199.5031°
Arg. of periapsis
347.5341°
True anomaly
12.13686°
Mean anomaly
1.7215°
Eccentric anomaly
5.33176°
Mean motion
0.7423 °/min
Orbital period
484.98 mins
BSTAR
0.00093943
Loading maneuver chart data...
Computing Atmospheric mass density...
Loading historical data...
Loading historical data...
Loading historical data...
Loading historical data...
Loading historical data...
Loading historical data...
Loading historical data...
Other satellites on launch #290 in the year 2025 (2025-12-09 UTC)

Documentation

Showing up to 5 results
|